Time,TemperatureF,DewpointF,PressureIn,WindDirection,WindDirectionDegrees,WindSpeedMPH,WindSpeedGustMPH,Humidity,HourlyPrecipIn,Conditions,Clouds,dailyrainin,SoftwareType,DateUTC
2013-06-11 00:03:00,81.0,75.0,30.08,North,0,0.0,0.0,83,-99.99,,,-99.99,,2013-06-11 04:03:00,
2013-06-11 00:12:00,81.0,75.0,30.08,North,0,0.0,0.0,83,-99.99,,,-99.99,,2013-06-11 04:12:00,
2013-06-11 00:23:00,81.0,75.0,30.07,North,0,0.0,0.0,83,-99.99,,,-99.99,,2013-06-11 04:23:00,
2013-06-11 00:33:00,80.0,75.0,30.07,North,0,0.0,0.0,85,-99.99,,,-99.99,,2013-06-11 04:33:00,
2013-06-11 00:42:00,80.0,75.0,30.07,North,0,0.0,0.0,85,-99.99,,,-99.99,,2013-06-11 04:42:00,
2013-06-11 00:53:00,80.0,75.0,30.07,North,0,0.0,0.0,85,-99.99,,,-99.99,,2013-06-11 04:53:00,
2013-06-11 01:02:00,80.0,75.0,30.07,North,0,0.0,0.0,85,-99.99,,,-99.99,,2013-06-11 05:02:00,
2013-06-11 01:12:00,80.0,75.0,30.07,North,0,0.0,0.0,85,-99.99,,,-99.99,,2013-06-11 05:12:00,
2013-06-11 01:22:00,80.0,75.0,30.07,North,0,0.0,0.0,86,-99.99,,,-99.99,,2013-06-11 05:22:00,
2013-06-11 01:32:00,80.0,75.0,30.06,North,0,0.0,0.0,86,-99.99,,,-99.99,,2013-06-11 05:32:00,
2013-06-11 01:42:00,80.0,75.0,30.06,North,0,0.0,0.0,86,-99.99,,,-99.99,,2013-06-11 05:42:00,
2013-06-11 01:52:00,80.0,75.0,30.06,North,0,0.0,0.0,85,-99.99,,,-99.99,,2013-06-11 05:52:00,
2013-06-11 02:02:00,81.0,76.0,30.06,North,0,0.0,0.0,85,-99.99,,,-99.99,,2013-06-11 06:02:00,
2013-06-11 02:12:00,81.0,76.0,30.06,North,0,0.0,0.0,85,-99.99,,,-99.99,,2013-06-11 06:12:00,
2013-06-11 02:22:00,81.0,76.0,30.05,North,0,0.0,0.0,86,-99.99,,,-99.99,,2013-06-11 06:22:00,
2013-06-11 02:32:00,80.0,75.0,30.03,North,0,0.0,0.0,86,-99.99,,,-99.99,,2013-06-11 06:32:00,
2013-06-11 02:42:00,80.0,75.0,30.03,North,0,0.0,0.0,84,-99.99,,,-99.99,,2013-06-11 06:42:00,
2013-06-11 02:52:00,80.0,75.0,30.03,North,0,0.0,0.0,84,-99.99,,,-99.99,,2013-06-11 06:52:00,
2013-06-11 03:02:00,81.0,75.0,30.03,North,0,0.0,0.0,83,-99.99,,,-99.99,,2013-06-11 07:02:00,
2013-06-11 03:13:00,81.0,76.0,30.03,North,0,0.0,0.0,85,-99.99,,,-99.99,,2013-06-11 07:13:00,
2013-06-11 03:22:00,81.0,76.0,30.03,North,0,0.0,0.0,85,-99.99,,,-99.99,,2013-06-11 07:22:00,
2013-06-11 03:32:00,81.0,75.0,30.02,North,0,0.0,0.0,83,-99.99,,,-99.99,,2013-06-11 07:32:00,
2013-06-11 03:42:00,82.0,76.0,30.01,North,0,0.0,0.0,81,-99.99,,,-99.99,,2013-06-11 07:42:00,
2013-06-11 03:52:00,82.0,76.0,30.01,North,0,0.0,0.0,81,-99.99,,,-99.99,,2013-06-11 07:52:00,
2013-06-11 04:02:00,81.0,76.0,30.02,North,0,0.0,0.0,84,-99.99,,,-99.99,,2013-06-11 08:02:00,
2013-06-11 04:12:00,81.0,76.0,30.02,North,0,0.0,0.0,84,-99.99,,,-99.99,,2013-06-11 08:12:00,
2013-06-11 04:22:00,81.0,76.0,30.02,North,0,0.0,0.0,84,-99.99,,,-99.99,,2013-06-11 08:22:00,
2013-06-11 04:32:00,81.0,76.0,30.02,North,0,0.0,0.0,85,-99.99,,,-99.99,,2013-06-11 08:32:00,
2013-06-11 04:42:00,81.0,76.0,30.02,North,0,0.0,0.0,85,-99.99,,,-99.99,,2013-06-11 08:42:00,
2013-06-11 04:52:00,81.0,76.0,30.02,North,0,0.0,0.0,85,-99.99,,,-99.99,,2013-06-11 08:52:00,
2013-06-11 05:02:00,81.0,76.0,30.02,North,0,0.0,0.0,86,-99.99,,,-99.99,,2013-06-11 09:02:00,
2013-06-11 05:12:00,81.0,76.0,30.02,North,0,0.0,0.0,86,-99.99,,,-99.99,,2013-06-11 09:12:00,
2013-06-11 05:22:00,80.0,76.0,30.02,North,0,0.0,0.0,87,-99.99,,,-99.99,,2013-06-11 09:22:00,
2013-06-11 05:33:00,80.0,75.0,30.01,North,0,0.0,0.0,86,-99.99,,,-99.99,,2013-06-11 09:33:00,
2013-06-11 05:43:00,80.0,75.0,30.02,North,0,0.0,0.0,85,-99.99,,,-99.99,,2013-06-11 09:43:00,
2013-06-11 05:53:00,80.0,75.0,30.02,North,0,0.0,0.0,85,-99.99,,,-99.99,,2013-06-11 09:53:00,
2013-06-11 06:03:00,81.0,75.0,30.02,North,0,0.0,0.0,83,-99.99,,,-99.99,,2013-06-11 10:03:00,
2013-06-11 06:12:00,81.0,75.0,30.02,North,0,0.0,0.0,83,-99.99,,,-99.99,,2013-06-11 10:12:00,
2013-06-11 06:23:00,80.0,75.0,30.03,North,0,0.0,0.0,84,-99.99,,,-99.99,,2013-06-11 10:23:00,
2013-06-11 06:33:00,81.0,76.0,30.03,North,0,0.0,0.0,85,-99.99,,,-99.99,,2013-06-11 10:33:00,
2013-06-11 06:42:00,81.0,76.0,30.03,North,0,0.0,0.0,85,-99.99,,,-99.99,,2013-06-11 10:42:00,
2013-06-11 06:52:00,81.0,76.0,30.03,North,0,0.0,0.0,85,-99.99,,,-99.99,,2013-06-11 10:52:00,
2013-06-11 07:02:00,81.0,76.0,30.03,North,0,0.0,0.0,86,-99.99,,,-99.99,,2013-06-11 11:02:00,
2013-06-11 07:12:00,80.0,74.0,30.03,North,0,0.0,0.0,83,-99.99,,,-99.99,,2013-06-11 11:12:00,
2013-06-11 07:22:00,80.0,74.0,30.03,North,0,0.0,0.0,83,-99.99,,,-99.99,,2013-06-11 11:22:00,
2013-06-11 07:32:00,80.0,75.0,30.04,North,0,0.0,0.0,84,-99.99,,,-99.99,,2013-06-11 11:32:00,
2013-06-11 07:42:00,80.0,75.0,30.04,North,0,0.0,0.0,84,-99.99,,,-99.99,,2013-06-11 11:42:00,
2013-06-11 07:52:00,81.0,76.0,30.04,North,0,0.0,0.0,84,-99.99,,,-99.99,,2013-06-11 11:52:00,
2013-06-11 08:02:00,81.0,76.0,30.05,North,0,0.0,0.0,84,-99.99,,,-99.99,,2013-06-11 12:02:00,
2013-06-11 08:12:00,81.0,76.0,30.06,North,0,0.0,0.0,84,-99.99,,,-99.99,,2013-06-11 12:12:00,
2013-06-11 08:22:00,81.0,76.0,30.06,North,0,0.0,0.0,84,-99.99,,,-99.99,,2013-06-11 12:22:00,
2013-06-11 08:32:00,82.0,76.0,30.06,North,0,0.0,0.0,82,-99.99,,,-99.99,,2013-06-11 12:32:00,
2013-06-11 08:42:00,82.0,75.0,30.06,North,0,0.0,0.0,80,-99.99,,,-99.99,,2013-06-11 12:42:00,
2013-06-11 08:52:00,82.0,75.0,30.06,North,0,0.0,0.0,80,-99.99,,,-99.99,,2013-06-11 12:52:00,
2013-06-11 09:02:00,82.0,75.0,30.06,North,0,0.0,0.0,79,-99.99,,,-99.99,,2013-06-11 13:02:00,
2013-06-11 09:12:00,82.0,75.0,30.06,North,0,0.0,0.0,79,-99.99,,,-99.99,,2013-06-11 13:12:00,
2013-06-11 09:22:00,81.0,74.0,30.07,North,0,0.0,0.0,80,-99.99,,,-99.99,,2013-06-11 13:22:00,
2013-06-11 09:32:00,82.0,75.0,30.07,North,0,0.0,0.0,79,-99.99,,,-99.99,,2013-06-11 13:32:00,
2013-06-11 09:42:00,82.0,75.0,30.07,North,0,0.0,0.0,79,-99.99,,,-99.99,,2013-06-11 13:42:00,
2013-06-11 09:52:00,82.0,74.0,30.07,North,0,0.0,0.0,78,-99.99,,,-99.99,,2013-06-11 13:52:00,
2013-06-11 10:02:00,81.0,74.0,30.07,North,0,0.0,0.0,79,-99.99,,,-99.99,,2013-06-11 14:02:00,
2013-06-11 10:12:00,81.0,74.0,30.07,North,0,0.0,0.0,79,-99.99,,,-99.99,,2013-06-11 14:12:00,
2013-06-11 10:22:00,79.0,73.0,30.08,North,0,0.0,0.0,83,-99.99,,,-99.99,,2013-06-11 14:22:00,
2013-06-11 10:32:00,78.0,73.0,30.08,North,0,0.0,0.0,84,-99.99,,,-99.99,,2013-06-11 14:32:00,
2013-06-11 10:42:00,78.0,72.0,30.09,North,0,0.0,0.0,81,-99.99,,,-99.99,,2013-06-11 14:42:00,
2013-06-11 10:53:00,78.0,72.0,30.09,North,0,0.0,0.0,81,-99.99,,,-99.99,,2013-06-11 14:53:00,
2013-06-11 11:02:00,79.0,73.0,30.08,North,0,0.0,0.0,81,-99.99,,,-99.99,,2013-06-11 15:02:00,
2013-06-11 11:12:00,78.0,73.0,30.08,North,0,0.0,0.0,85,-99.99,,,-99.99,,2013-06-11 15:12:00,
2013-06-11 11:22:00,78.0,73.0,30.08,North,0,0.0,0.0,85,-99.99,,,-99.99,,2013-06-11 15:22:00,
2013-06-11 11:33:00,80.0,74.0,30.09,North,0,0.0,0.0,83,-99.99,,,-99.99,,2013-06-11 15:33:00,
2013-06-11 11:43:00,83.0,75.0,30.09,North,0,0.0,0.0,78,-99.99,,,-99.99,,2013-06-11 15:43:00,
2013-06-11 11:53:00,83.0,75.0,30.09,North,0,0.0,0.0,78,-99.99,,,-99.99,,2013-06-11 15:53:00,
2013-06-11 12:03:00,84.0,75.0,30.09,North,0,0.0,0.0,75,-99.99,,,-99.99,,2013-06-11 16:03:00,
2013-06-11 12:12:00,84.0,75.0,30.09,North,0,0.0,0.0,75,-99.99,,,-99.99,,2013-06-11 16:12:00,
2013-06-11 12:22:00,83.0,75.0,30.08,North,0,0.0,0.0,77,-99.99,,,-99.99,,2013-06-11 16:22:00,
2013-06-11 12:33:00,82.0,73.0,30.08,North,0,0.0,0.0,75,-99.99,,,-99.99,,2013-06-11 16:33:00,
2013-06-11 12:42:00,83.0,73.0,30.07,North,0,0.0,0.0,73,-99.99,,,-99.99,,2013-06-11 16:42:00,
2013-06-11 12:53:00,83.0,73.0,30.07,North,0,0.0,0.0,73,-99.99,,,-99.99,,2013-06-11 16:53:00,
2013-06-11 13:02:00,83.0,74.0,30.07,North,0,0.0,0.0,75,-99.99,,,-99.99,,2013-06-11 17:02:00,
2013-06-11 13:12:00,83.0,74.0,30.07,North,0,0.0,0.0,75,-99.99,,,-99.99,,2013-06-11 17:12:00,
2013-06-11 13:22:00,84.0,74.0,30.07,North,0,0.0,0.0,73,-99.99,,,-99.99,,2013-06-11 17:22:00,
2013-06-11 13:32:00,86.0,74.0,30.07,North,0,0.0,0.0,67,-99.99,,,-99.99,,2013-06-11 17:32:00,
2013-06-11 13:43:00,86.0,73.0,30.06,North,0,0.0,0.0,65,-99.99,,,-99.99,,2013-06-11 17:43:00,
2013-06-11 13:52:00,86.0,73.0,30.06,North,0,0.0,0.0,65,-99.99,,,-99.99,,2013-06-11 17:52:00,
2013-06-11 14:02:00,85.0,74.0,30.06,North,0,0.0,0.0,69,-99.99,,,-99.99,,2013-06-11 18:02:00,
2013-06-11 14:12:00,85.0,74.0,30.06,North,0,0.0,0.0,69,-99.99,,,-99.99,,2013-06-11 18:12:00,
2013-06-11 14:22:00,83.0,73.0,30.06,North,0,0.0,0.0,72,-99.99,,,-99.99,,2013-06-11 18:22:00,
2013-06-11 14:32:00,83.0,73.0,30.06,North,0,0.0,0.0,72,-99.99,,,-99.99,,2013-06-11 18:32:00,
2013-06-11 14:43:00,84.0,72.0,30.05,North,0,0.0,0.0,68,-99.99,,,-99.99,,2013-06-11 18:43:00,
2013-06-11 14:52:00,84.0,72.0,30.05,North,0,0.0,0.0,68,-99.99,,,-99.99,,2013-06-11 18:52:00,
2013-06-11 15:02:00,84.0,72.0,30.05,North,0,0.0,0.0,67,-99.99,,,-99.99,,2013-06-11 19:02:00,
2013-06-11 15:12:00,84.0,72.0,30.05,North,0,0.0,0.0,67,-99.99,,,-99.99,,2013-06-11 19:12:00,
2013-06-11 15:22:00,85.0,72.0,30.04,North,0,0.0,0.0,66,-99.99,,,-99.99,,2013-06-11 19:22:00,
2013-06-11 15:33:00,87.0,73.0,30.04,North,0,0.0,0.0,64,-99.99,,,-99.99,,2013-06-11 19:33:00,
2013-06-11 15:42:00,88.0,73.0,30.04,North,0,0.0,0.0,62,-99.99,,,-99.99,,2013-06-11 19:42:00,
2013-06-11 15:53:00,88.0,73.0,30.04,North,0,0.0,0.0,62,-99.99,,,-99.99,,2013-06-11 19:53:00,
2013-06-11 16:03:00,88.0,73.0,30.04,North,0,0.0,0.0,61,-99.99,,,-99.99,,2013-06-11 20:03:00,
2013-06-11 16:12:00,88.0,73.0,30.04,North,0,0.0,0.0,61,-99.99,,,-99.99,,2013-06-11 20:12:00,
2013-06-11 16:22:00,88.0,73.0,30.03,North,0,0.0,0.0,62,-99.99,,,-99.99,,2013-06-11 20:22:00,
2013-06-11 16:32:00,85.0,73.0,30.03,North,0,0.0,0.0,67,-99.99,,,-99.99,,2013-06-11 20:32:00,
2013-06-11 16:42:00,85.0,73.0,30.03,North,0,0.0,0.0,67,-99.99,,,-99.99,,2013-06-11 20:42:00,
2013-06-11 16:52:00,83.0,73.0,30.02,North,0,0.0,0.0,73,-99.99,,,-99.99,,2013-06-11 20:52:00,
2013-06-11 17:02:00,82.0,74.0,30.02,North,0,0.0,0.0,77,-99.99,,,-99.99,,2013-06-11 21:02:00,
2013-06-11 17:12:00,82.0,74.0,30.02,North,0,0.0,0.0,77,-99.99,,,-99.99,,2013-06-11 21:12:00,
2013-06-11 17:22:00,81.0,74.0,30.01,North,0,0.0,0.0,79,-99.99,,,-99.99,,2013-06-11 21:22:00,
2013-06-11 17:33:00,81.0,74.0,30.02,North,0,0.0,0.0,80,-99.99,,,-99.99,,2013-06-11 21:33:00,
2013-06-11 17:42:00,81.0,74.0,30.02,North,0,0.0,0.0,80,-99.99,,,-99.99,,2013-06-11 21:42:00,
2013-06-11 17:53:00,82.0,75.0,30.01,North,0,0.0,0.0,80,-99.99,,,-99.99,,2013-06-11 21:53:00,
2013-06-11 18:03:00,82.0,76.0,30.01,North,0,0.0,0.0,81,-99.99,,,-99.99,,2013-06-11 22:03:00,
2013-06-11 18:12:00,82.0,76.0,30.01,North,0,0.0,0.0,81,-99.99,,,-99.99,,2013-06-11 22:12:00,
2013-06-11 18:22:00,82.0,76.0,30.02,North,0,0.0,0.0,81,-99.99,,,-99.99,,2013-06-11 22:22:00,
2013-06-11 18:33:00,82.0,76.0,30.03,North,0,0.0,0.0,81,-99.99,,,-99.99,,2013-06-11 22:33:00,
2013-06-11 18:42:00,82.0,76.0,30.03,North,0,0.0,0.0,81,-99.99,,,-99.99,,2013-06-11 22:42:00,
2013-06-11 18:52:00,82.0,76.0,30.03,North,0,0.0,0.0,82,-99.99,,,-99.99,,2013-06-11 22:52:00,
2013-06-11 19:02:00,81.0,75.0,30.04,North,0,0.0,0.0,81,-99.99,,,-99.99,,2013-06-11 23:02:00,
2013-06-11 19:12:00,81.0,75.0,30.04,North,0,0.0,0.0,81,-99.99,,,-99.99,,2013-06-11 23:12:00,
2013-06-11 19:22:00,81.0,75.0,30.04,North,0,0.0,0.0,81,-99.99,,,-99.99,,2013-06-11 23:22:00,
2013-06-11 19:32:00,82.0,76.0,30.04,North,0,0.0,0.0,81,-99.99,,,-99.99,,2013-06-11 23:32:00,
2013-06-11 19:42:00,81.0,75.0,30.04,North,0,0.0,0.0,81,-99.99,,,-99.99,,2013-06-11 23:42:00,
2013-06-11 19:52:00,81.0,75.0,30.04,North,0,0.0,0.0,81,-99.99,,,-99.99,,2013-06-11 23:52:00,
2013-06-11 20:02:00,81.0,75.0,30.04,North,0,0.0,0.0,81,-99.99,,,-99.99,,2013-06-12 00:02:00,
2013-06-11 20:12:00,81.0,75.0,30.04,North,0,0.0,0.0,82,-99.99,,,-99.99,,2013-06-12 00:12:00,
2013-06-11 20:22:00,81.0,75.0,30.04,North,0,0.0,0.0,82,-99.99,,,-99.99,,2013-06-12 00:22:00,
2013-06-11 20:32:00,81.0,75.0,30.05,North,0,0.0,0.0,82,-99.99,,,-99.99,,2013-06-12 00:32:00,
2013-06-11 20:42:00,81.0,75.0,30.05,North,0,0.0,0.0,82,-99.99,,,-99.99,,2013-06-12 00:42:00,
2013-06-11 20:52:00,81.0,75.0,30.04,North,0,0.0,0.0,82,-99.99,,,-99.99,,2013-06-12 00:52:00,
2013-06-11 21:02:00,82.0,76.0,30.03,North,0,0.0,0.0,82,-99.99,,,-99.99,,2013-06-12 01:02:00,
2013-06-11 21:12:00,82.0,76.0,30.03,North,0,0.0,0.0,82,-99.99,,,-99.99,,2013-06-12 01:12:00,
2013-06-11 21:22:00,81.0,75.0,30.04,North,0,0.0,0.0,83,-99.99,,,-99.99,,2013-06-12 01:22:00,
2013-06-11 21:32:00,80.0,75.0,30.03,North,0,0.0,0.0,85,-99.99,,,-99.99,,2013-06-12 01:32:00,
2013-06-11 21:42:00,80.0,75.0,30.03,North,0,0.0,0.0,85,-99.99,,,-99.99,,2013-06-12 01:42:00,
2013-06-11 21:52:00,80.0,74.0,30.04,North,0,0.0,0.0,83,-99.99,,,-99.99,,2013-06-12 01:52:00,
2013-06-11 22:02:00,81.0,75.0,30.03,North,0,0.0,0.0,81,-99.99,,,-99.99,,2013-06-12 02:02:00,
2013-06-11 22:12:00,81.0,75.0,30.03,North,0,0.0,0.0,81,-99.99,,,-99.99,,2013-06-12 02:12:00,
2013-06-11 22:22:00,82.0,75.0,30.03,North,0,0.0,0.0,79,-99.99,,,-99.99,,2013-06-12 02:22:00,
2013-06-11 22:32:00,82.0,75.0,30.04,North,0,0.0,0.0,79,-99.99,,,-99.99,,2013-06-12 02:32:00,
2013-06-11 22:42:00,82.0,75.0,30.03,North,0,0.0,0.0,80,-99.99,,,-99.99,,2013-06-12 02:42:00,
2013-06-11 22:52:00,82.0,75.0,30.03,North,0,0.0,0.0,80,-99.99,,,-99.99,,2013-06-12 02:52:00,
2013-06-11 23:02:00,82.0,76.0,30.04,North,0,0.0,0.0,81,-99.99,,,-99.99,,2013-06-12 03:02:00,
2013-06-11 23:12:00,82.0,76.0,30.03,North,0,0.0,0.0,81,-99.99,,,-99.99,,2013-06-12 03:12:00,
2013-06-11 23:22:00,82.0,76.0,30.03,North,0,0.0,0.0,81,-99.99,,,-99.99,,2013-06-12 03:22:00,
2013-06-11 23:33:00,81.0,75.0,30.04,North,0,0.0,0.0,83,-99.99,,,-99.99,,2013-06-12 03:33:00,
2013-06-11 23:43:00,81.0,75.0,30.04,North,0,0.0,0.0,83,-99.99,,,-99.99,,2013-06-12 03:43:00,
2013-06-11 23:53:00,81.0,75.0,30.03,North,0,0.0,0.0,82,-99.99,,,-99.99,,2013-06-12 03:53:00,